Location: Newark
(35.9031°N, 139.7175°E)
Time: 18:39:46
(UTC+00:00)

Transit 2A Rocket - All Passes

Search period start: 06 June 2020 00:00
Search period end: 16 June 2020 00:00
Orbit: 585 x 918 km, 66.7° (Epoch: 05 June)

Date Brightness Start Highest point End Pass type
(mag) Time Alt. Az. Time Alt. Az. Time Alt. Az.
06 Jun - 09:37:47 10° ESE 09:39:18 11° E 09:40:51 10° E daylight
06 Jun - 11:16:05 10° SSW 11:20:59 72° WNW 11:26:28 10° NNE visible
06 Jun - 13:03:22 10° NW 13:04:44 11° NW 13:06:08 10° NNW visible
06 Jun - 20:02:01 10° NNW 20:07:59 52° ENE 20:13:52 10° SE daylight
06 Jun - 21:45:33 10° NW 21:50:14 23° WSW 21:54:50 10° SSW daylight
07 Jun - 10:33:38 10° SSW 10:38:28 63° ESE 10:43:50 10° NNE visible
07 Jun - 12:18:11 10° W 12:21:38 18° NW 12:25:19 10° N visible
07 Jun - 19:19:46 10° N 19:25:13 32° NE 19:30:35 10° ESE daylight
07 Jun - 21:02:16 10° NW 21:07:55 40° WSW 21:13:26 10° S daylight
08 Jun - 09:51:44 10° S 09:56:06 33° ESE 10:00:53 10° NE daylight
08 Jun - 11:34:19 10° WSW 11:38:42 29° NW 11:43:27 10° N visible
08 Jun - 18:37:49 10° N 18:42:19 21° NE 18:46:46 10° E visible
08 Jun - 20:19:23 10° NNW 20:25:30 69° WSW 20:31:26 10° SSE daylight
09 Jun - 09:10:35 10° SE 09:13:52 18° ESE 09:17:22 10° ENE daylight
09 Jun - 10:51:04 10° SW 10:55:54 49° WNW 11:01:16 10° NNE visible
09 Jun - 17:56:25 10° NNE 17:59:14 13° NE 18:02:03 10° ENE visible
09 Jun - 19:36:48 10° NNW 19:42:56 72° ENE 19:48:56 10° SSE daylight
09 Jun - 21:21:23 10° WNW 21:24:53 16° WSW 21:28:20 10° SW daylight
10 Jun - 10:08:19 10° SSW 10:13:16 88° WNW 10:18:48 10° NNE daylight
10 Jun - 11:54:22 10° WNW 11:56:50 13° NW 11:59:24 10° NNW visible
10 Jun - 18:54:25 10° NNW 19:00:15 44° ENE 19:05:59 10° SE visible
10 Jun - 20:37:34 10° NW 20:42:39 28° WSW 20:47:38 10° SSW daylight
11 Jun - 09:26:03 10° S 09:30:49 50° ESE 09:36:05 10° NE daylight
11 Jun - 11:09:53 10° W 11:13:47 21° NW 11:17:58 10° N visible
11 Jun - 18:12:16 10° N 18:17:26 28° NE 18:22:32 10° ESE visible
11 Jun - 19:54:26 10° NW 20:00:18 48° WSW 20:06:00 10° S daylight
12 Jun - 08:44:21 10° SSE 08:48:30 27° ESE 08:52:59 10° NE daylight
12 Jun - 10:26:16 10° WSW 10:30:53 34° NW 10:35:58 10° N visible
12 Jun - 17:30:27 10° N 17:34:28 18° NE 17:38:28 10° E visible
12 Jun - 19:11:41 10° NNW 19:17:50 82° WSW 19:23:49 10° SSE daylight
12 Jun - 20:58:57 10° W 20:59:29 10° W 21:00:01 10° WSW daylight
13 Jun - 08:03:38 10° SE 08:06:19 14° ESE 08:09:06 10° ENE daylight
13 Jun - 09:43:11 10° SW 09:48:09 60° WNW 09:53:40 10° NNE daylight
13 Jun - 16:49:33 10° NNE 16:51:20 11° NE 16:53:08 10° ENE visible
13 Jun - 18:29:09 10° NNW 18:35:15 61° ENE 18:41:09 10° SE visible
13 Jun - 20:13:08 10° WNW 20:17:20 19° WSW 20:21:26 10° SSW daylight
14 Jun - 09:00:36 10° SSW 09:05:35 76° ESE 09:11:07 10° NNE daylight
14 Jun - 10:45:47 10° W 10:48:56 16° NW 10:52:16 10° N visible
14 Jun - 17:46:51 10° NNW 17:52:30 37° NE 17:58:02 10° ESE visible
14 Jun - 19:29:38 10° NW 19:35:03 34° WSW 19:40:19 10° S daylight
15 Jun - 08:18:31 10° S 08:23:10 41° ESE 08:28:17 10° NE daylight
15 Jun - 10:01:41 10° WSW 10:05:57 25° NW 10:10:33 10° N daylight
15 Jun - 17:04:47 10° N 17:09:37 24° NE 17:14:23 10° ESE visible
15 Jun - 18:46:40 10° NW 18:52:41 58° WSW 18:58:29 10° S visible
